TimeCST,TemperatureF,Dew PointF,Humidity,Sea Level PressureIn,VisibilityMPH,Wind Direction,Wind SpeedMPH,Gust SpeedMPH,PrecipitationIn,Events,Conditions,WindDirDegrees,DateUTC
12:26 AM,53.6,50.0,88,29.91,6.0,East,8.1,-,N/A,Rain-Thunderstorm,Thunderstorms and Rain,80,2013-02-25 06:26:00
12:41 AM,53.6,50.0,88,29.90,6.0,East,9.2,-,N/A,Rain,Light Rain,80,2013-02-25 06:41:00
12:58 AM,52.7,51.1,94,29.90,7.0,ENE,10.4,-,0.21,Rain,Rain,60,2013-02-25 06:58:00
1:58 AM,52.9,50.9,93,29.90,10.0,ESE,5.8,-,0.08,Rain,Light Rain,110,2013-02-25 07:58:00
2:46 AM,53.6,51.8,94,29.87,10.0,East,8.1,-,N/A,,Overcast,90,2013-02-25 08:46:00
2:58 AM,52.9,51.4,95,29.86,10.0,East,11.5,-,0.09,,Overcast,80,2013-02-25 08:58:00
2:59 AM,53.6,51.8,94,29.86,10.0,East,10.4,-,N/A,Rain,Light Rain,80,2013-02-25 08:59:00
3:36 AM,53.6,51.8,94,29.82,10.0,East,10.4,-,N/A,Rain,Light Rain,80,2013-02-25 09:36:00
3:41 AM,53.6,51.8,94,29.81,10.0,ENE,9.2,-,N/A,Rain,Light Rain,60,2013-02-25 09:41:00
3:56 AM,53.6,51.8,94,29.81,9.0,East,10.4,-,N/A,Rain,Light Rain,80,2013-02-25 09:56:00
3:58 AM,52.9,51.8,96,29.82,9.0,East,10.4,-,0.05,Rain,Light Rain,80,2013-02-25 09:58:00
4:28 AM,53.6,53.6,100,29.83,9.0,NE,6.9,-,N/A,Rain,Rain,50,2013-02-25 10:28:00
4:33 AM,53.6,53.6,100,29.85,7.0,ENE,2.3,-,N/A,Rain-Thunderstorm,Thunderstorms and Rain,70,2013-02-25 10:33:00
4:48 AM,53.6,53.6,100,29.84,7.0,NNE,5.8,-,N/A,Rain,Rain,30,2013-02-25 10:48:00
4:53 AM,53.6,53.6,100,29.84,6.0,North,8.1,-,N/A,Rain,Heavy Rain,10,2013-02-25 10:53:00
4:58 AM,53.8,52.9,97,29.87,6.0,NE,3.5,-,0.14,Rain,Heavy Rain,40,2013-02-25 10:58:00
4:59 AM,53.6,53.6,100,29.86,5.0,ENE,2.3,-,N/A,Rain-Thunderstorm,Thunderstorms and Rain,60,2013-02-25 10:59:00
5:14 AM,53.6,53.6,100,29.84,5.0,NE,8.1,-,N/A,Rain,Rain,40,2013-02-25 11:14:00
5:24 AM,53.6,53.6,100,29.87,6.0,Variable,2.3,-,N/A,Rain,Light Rain,0,2013-02-25 11:24:00
5:29 AM,53.6,53.6,100,29.88,7.0,WNW,4.6,-,N/A,Rain,Light Rain,290,2013-02-25 11:29:00
5:44 AM,53.6,53.6,100,29.83,7.0,NNE,12.7,-,N/A,Rain,Light Rain,30,2013-02-25 11:44:00
5:54 AM,53.6,53.6,100,29.87,10.0,NE,5.8,-,N/A,Rain,Light Rain,50,2013-02-25 11:54:00
5:58 AM,53.8,52.9,97,29.88,10.0,NE,6.9,-,0.15,Rain,Light Rain,40,2013-02-25 11:58:00
6:18 AM,53.6,53.6,100,29.87,5.0,North,6.9,-,N/A,Rain,Rain,10,2013-02-25 12:18:00
6:28 AM,53.6,53.6,100,29.86,3.0,NNE,11.5,-,N/A,Rain,Heavy Rain,30,2013-02-25 12:28:00
6:38 AM,53.6,53.6,100,29.85,4.0,NE,11.5,-,N/A,Rain,Heavy Rain,50,2013-02-25 12:38:00
6:53 AM,53.6,53.6,100,29.85,2.0,NE,12.7,-,N/A,Rain,Heavy Rain,40,2013-02-25 12:53:00
6:58 AM,54.1,53.4,97,29.90,2.0,East,9.2,-,0.23,Rain,Light Rain,80,2013-02-25 12:58:00
7:03 AM,53.6,53.6,100,29.91,4.0,SE,8.1,-,N/A,Rain,Rain,130,2013-02-25 13:03:00
7:13 AM,53.6,53.6,100,29.91,2.5,East,6.9,-,N/A,Rain,Heavy Rain,90,2013-02-25 13:13:00
7:23 AM,53.6,53.6,100,29.91,2.5,ENE,5.8,-,N/A,Rain,Rain,70,2013-02-25 13:23:00
7:28 AM,53.6,53.6,100,29.90,2.0,NE,10.4,-,N/A,Rain,Rain,40,2013-02-25 13:28:00
7:33 AM,55.4,53.6,94,29.90,2.0,NE,11.5,-,N/A,Rain,Heavy Rain,40,2013-02-25 13:33:00
7:43 AM,55.4,53.6,94,29.86,2.0,NNE,18.4,-,N/A,Rain,Heavy Rain,30,2013-02-25 13:43:00
7:48 AM,55.4,53.6,94,29.85,3.0,NNE,17.3,-,N/A,Rain,Heavy Rain,30,2013-02-25 13:48:00
7:58 AM,55.4,53.6,94,29.89,6.0,ENE,10.4,-,N/A,Rain,Rain,60,2013-02-25 13:58:00
8:03 AM,55.4,53.6,94,29.91,7.0,East,9.2,-,N/A,Rain,Light Rain,90,2013-02-25 14:03:00
8:13 AM,55.4,53.6,94,29.91,5.0,NE,5.8,-,N/A,Rain,Rain,50,2013-02-25 14:13:00
8:18 AM,55.4,53.6,94,29.91,5.0,ENE,5.8,-,N/A,Rain,Rain,60,2013-02-25 14:18:00
8:53 AM,55.4,53.6,94,29.89,7.0,ENE,6.9,-,N/A,Rain,Light Rain,60,2013-02-25 14:53:00
8:58 AM,55.0,54.5,98,29.90,7.0,ENE,9.2,-,0.17,Rain,Light Rain,60,2013-02-25 14:58:00
9:58 AM,55.4,55.4,100,29.89,9.0,ENE,10.4,-,N/A,Rain,Light Rain,60,2013-02-25 15:58:00
10:39 AM,55.4,55.4,100,29.88,6.0,ENE,13.8,-,N/A,Rain,Light Rain,70,2013-02-25 16:39:00
10:58 AM,55.4,55.4,100,29.86,8.0,East,12.7,-,N/A,Rain,Light Rain,100,2013-02-25 16:58:00
11:44 AM,57.2,55.4,94,29.83,10.0,ESE,10.4,-,N/A,Rain,Light Rain,110,2013-02-25 17:44:00
11:58 AM,57.2,55.4,94,29.80,10.0,East,16.1,21.9,0.04,Rain,Light Rain,90,2013-02-25 17:58:00
12:03 PM,57.2,57.2,100,29.78,10.0,East,15.0,21.9,N/A,Rain,Light Rain,100,2013-02-25 18:03:00
12:11 PM,57.2,57.2,100,29.79,10.0,East,12.7,24.2,N/A,,Overcast,90,2013-02-25 18:11:00
12:51 PM,59.0,57.2,94,29.79,10.0,East,13.8,20.7,N/A,,Overcast,100,2013-02-25 18:51:00
12:58 PM,59.4,57.2,93,29.79,10.0,East,15.0,19.6,0.00,,Overcast,100,2013-02-25 18:58:00
1:33 PM,59.0,57.2,94,29.78,10.0,East,13.8,-,N/A,,Overcast,90,2013-02-25 19:33:00
1:58 PM,60.3,57.0,89,29.78,10.0,East,12.7,-,N/A,,Overcast,100,2013-02-25 19:58:00
2:58 PM,61.0,57.2,87,29.77,10.0,East,12.7,-,N/A,,Mostly Cloudy,100,2013-02-25 20:58:00
3:08 PM,60.8,57.2,88,29.75,10.0,East,13.8,-,N/A,,Scattered Clouds,90,2013-02-25 21:08:00
3:58 PM,60.8,56.7,86,29.75,10.0,East,13.8,18.4,N/A,,Mostly Cloudy,100,2013-02-25 21:58:00
4:18 PM,60.8,57.2,88,29.74,10.0,East,10.4,-,N/A,Rain,Light Rain,100,2013-02-25 22:18:00
4:28 PM,60.8,57.2,88,29.74,4.0,East,10.4,-,N/A,Rain,Light Rain,90,2013-02-25 22:28:00
4:38 PM,59.0,57.2,94,29.74,4.0,East,8.1,-,N/A,Rain,Light Rain,80,2013-02-25 22:38:00
4:58 PM,59.0,57.4,94,29.76,8.0,ENE,6.9,-,0.06,Rain,Light Rain,60,2013-02-25 22:58:00
5:03 PM,59.0,57.2,94,29.75,2.5,NE,9.2,-,N/A,Rain,Rain,50,2013-02-25 23:03:00
5:08 PM,59.0,57.2,94,29.74,1.8,ENE,9.2,-,N/A,Rain,Heavy Rain,60,2013-02-25 23:08:00
5:13 PM,59.0,57.2,94,29.74,3.0,East,10.4,-,N/A,Rain,Light Rain,80,2013-02-25 23:13:00
5:18 PM,59.0,57.2,94,29.74,10.0,East,10.4,-,N/A,,Overcast,80,2013-02-25 23:18:00
5:44 PM,59.0,57.2,94,29.74,10.0,East,10.4,-,N/A,Rain,Light Rain,90,2013-02-25 23:44:00
5:58 PM,59.0,57.2,94,29.75,10.0,East,10.4,-,0.12,Rain,Light Rain,80,2013-02-25 23:58:00
6:18 PM,59.0,57.2,94,29.74,7.0,East,9.2,-,N/A,Rain,Light Rain,80,2013-02-26 00:18:00
6:23 PM,59.0,57.2,94,29.74,6.0,East,10.4,-,N/A,Rain,Rain,80,2013-02-26 00:23:00
6:58 PM,58.8,57.7,96,29.74,10.0,East,10.4,-,0.10,Rain,Light Rain,90,2013-02-26 00:58:00
7:11 PM,59.0,57.2,94,29.73,10.0,East,10.4,-,N/A,,Overcast,80,2013-02-26 01:11:00
7:23 PM,59.0,57.2,94,29.72,10.0,East,10.4,-,N/A,,Overcast,80,2013-02-26 01:23:00
7:37 PM,59.0,57.2,94,29.73,10.0,East,12.7,-,N/A,,Light Drizzle,90,2013-02-26 01:37:00
7:58 PM,58.8,57.7,96,29.71,10.0,East,11.5,-,0.02,Rain,Light Rain,90,2013-02-26 01:58:00
8:08 PM,59.0,57.2,94,29.70,9.0,East,10.4,-,N/A,Rain-Thunderstorm,Light Thunderstorms and Rain,90,2013-02-26 02:08:00
8:18 PM,59.0,57.2,94,29.71,10.0,East,10.4,17.3,N/A,Rain-Thunderstorm,Light Thunderstorms and Rain,90,2013-02-26 02:18:00
8:23 PM,59.0,57.2,94,29.70,6.0,East,9.2,17.3,N/A,Rain,Light Rain,80,2013-02-26 02:23:00
8:25 PM,59.0,57.2,94,29.70,5.0,East,10.4,-,N/A,Rain,Rain,80,2013-02-26 02:25:00
8:55 PM,59.0,57.2,94,29.70,7.0,East,12.7,-,N/A,Rain,Light Rain,90,2013-02-26 02:55:00
8:56 PM,59.0,57.2,94,29.70,7.0,East,11.5,-,N/A,Rain,Light Rain,90,2013-02-26 02:56:00
8:58 PM,59.0,57.2,94,29.71,7.0,East,11.5,-,0.23,Rain,Light Rain,90,2013-02-26 02:58:00
9:20 PM,59.0,57.2,94,29.69,10.0,East,12.7,-,N/A,,Overcast,100,2013-02-26 03:20:00
9:34 PM,59.0,57.2,94,29.68,10.0,East,10.4,20.7,N/A,Rain,Light Rain,100,2013-02-26 03:34:00
9:58 PM,58.6,57.7,97,29.68,10.0,ESE,12.7,23.0,0.05,Rain,Light Rain,110,2013-02-26 03:58:00
10:05 PM,59.0,57.2,94,29.67,10.0,East,13.8,21.9,N/A,,Overcast,100,2013-02-26 04:05:00
10:11 PM,59.0,57.2,94,29.66,10.0,East,17.3,23.0,N/A,Rain,Light Rain,100,2013-02-26 04:11:00
10:28 PM,59.0,59.0,100,29.66,10.0,ESE,9.2,-,N/A,,Overcast,110,2013-02-26 04:28:00
10:34 PM,59.0,57.2,94,29.66,10.0,ESE,13.8,-,N/A,,Light Drizzle,110,2013-02-26 04:34:00
10:58 PM,59.2,58.1,96,29.65,10.0,ESE,17.3,20.7,0.01,Rain,Light Rain,110,2013-02-26 04:58:00
11:23 PM,59.0,59.0,100,29.61,10.0,ESE,17.3,23.0,N/A,Rain,Light Rain,110,2013-02-26 05:23:00
11:58 PM,60.3,59.0,96,29.60,8.0,ESE,17.3,25.3,0.04,Rain,Light Rain,110,2013-02-26 05:58:00